ATLAS 5 CENTAUR DEB, 45474

Orbit data source: Space-Track

ATLAS 5 CENTAUR DEB, 45474 is space debris in HEO originally from a launch on Wed, 17 Oct 2018 UTC launched from the Air Force Eastern Test Range (AFETR). Debris objects in space refer to the collection of defunct objects orbiting the Earth. Examples of debris include non-operational satellites, rocket bodies, and fragments generated from explosions, collisions, or faulty payload assembly.

Loading next visibility...
ATLAS 5 CENTAUR DEB details
Identifier
45474, 2018-079BW
Orbit
HEO
Last TLE update1 day ago
Origin
Flag of USULA (US)
ManufacturerULA Decatur
MissionSpacecraft
Bus & MotorUnknown
MassUnknown
Launch date (UTC)
2018-10-17 (6 years ago)
Launch vehicleUnknown
Launch site
Air Force Eastern Test Range (AFETR)
Object type
Payload
Rocket body
Debris
Shape & HBRUnknown
Radar Cross SectionRCS unknown

Expand to show TLE details & history

TLE from 1 day ago
0 ATLAS 5 CENTAUR DEB
1 45474U 18079BW  25023.22306298 -.00000094  00000-0  00000+0 0  9996
2 45474  12.0195 100.6598 4559019 179.6677 180.6942  1.74222211 34109
Epoch: 2025-01-23T05:21Z
Definitive object data (Epoch: 2025-01-23T05:21:12.641Z)
Latitude
Longitude-102.45959°
Altitude36,115.451 km
Speed2.258 km/s
True Right ascension06h 42m 35s
True Declination0° 00' 00"
Sunlit
Object was in daylight at TLE epoch
Visualization TLE readout
Latitude11.65648°
Longitude2.74161°
Altitude14,267.523 km
Speed4.995 km/s
Apparent Right ascension13h 06m 15s
Apparent Declination0° 19' 24"
Sunlit
Object is in daylight
Visualization observer readout
Local Sidereal Time15:53:15
Azimuth234.533° WSW
Elevation35.158°
Doppler factor1
Orbital elements
Apogee altitude36,099.63 km
Perigee altitude9,496.608 km
Semi-major axis29,176.256 km
Eccentricity0.4559019
Inclination12.0195°
RAAN100.6598°
Arg. of periapsis179.6677°
True anomaly180.29149°
Mean anomaly180.6942°
Eccentric anomaly180.47682°
Mean motion0.43551 °/min
BSTARUnknown
Orbital period826.62 mins
Loading maneuver chart data...

ATLAS 5 CENTAUR DEB Visibility forecast

Observer location: undefined°, undefined

Span
Click to sort rows by Start time (UTC) header in descending order
Start Az.
Max El. time (UTC)
Max El. Az.
Max El.
End time (UTC)
End Az.
83 mins2025-01-24 14:37:03.106Z234.496° WSW2025-01-24 15:08:03.106Z201.394° SSW33.471°2025-01-24 16:00:03.106Z130.97° SE
|